[[{"header":{"parameterUnit":"m.s-1","parameterCategory":1,"la1":30.2991,"la2":30.254,"lo1":-89.0895,"lo2":-89.0444,"dy":0.0017,"dx":0.0017,"nx":28,"ny":28,"refTime":"2026-02-11T03:00:00:Z","depth":0,"parameterNumber":2,"parameterNumberName":"U-component_of_WINDS"},"data":[0,0,0,0,0,0,0,0,0,0,0,0,0,0,0,0,0,0,0,0,0,0,0,0,0,0,0,0,0,0,0,0,0,0,0,0,0,0,0,0,0,0,0,0,0,0,0,0,0,0,0,0,0,0,0,0,0,0,0.6843,0.6844,0,0.6958,0.6959,0.696,0.6987,0.6986,0.6985,0.6984,0.7106,0.711,0.7114,0,0,0,0,0,0,0,0,0,0,0,0,0,0.6649,0.6653,0.6843,0.6844,0.6846,0.6957,0.6959,0.6961,0.6987,0.6986,0.6985,0.6984,0.7104,0.7109,0.7114,0,0,0,0,0,0,0,0,0,0,0,0,0,0.6746,0.6654,0.6843,0.6872,0.6876,0.6957,0.6959,0.6961,0.6987,0.6986,0.6984,0.6983,0.7103,0.7109,0.7115,0.7176,0,0,0.7133,0.7135,0,0,0,0,0,0,0,0,0.674,0.6753,0.6866,0.687,0.6875,0.6956,0.6935,0.7033,0.6987,0.6945,0.6984,0.6983,0.7057,0.7067,0.7091,0.7181,0.7187,0.7133,0.7137,0.714,0.7141,0,0,0,0,0,0,0,0.6733,0.6748,0.6888,0.6868,0.6873,0.6881,0.6893,0.6954,0.7007,0.6948,0.6951,0.6964,0.7059,0.7085,0.7094,0.7188,0.7133,0.7138,0.7142,0.7145,0.7334,0.7335,0,0,0,0,0,0,0.6721,0.6742,0.6885,0.6892,0.6803,0.6885,0.6899,0.6931,0.7006,0.7016,0.6965,0.6964,0.7076,0.7087,0.7099,0.7175,0.7139,0.7145,0.7149,0.7332,0.7334,0.7336,0,0,0,0,0,0,0.6717,0.6734,0.688,0.6818,0.6837,0.689,0.6926,0.6934,0.696,0.7018,0.7028,0.6981,0.7075,0.709,0.7156,0.7179,0.7148,0.7153,0.7331,0.7333,0.7335,0.7327,0,0,0,0,0,0,0.6711,0.6732,0.6755,0.6818,0.684,0.6935,0.6928,0.6937,0.697,0.6971,0.7036,0.7046,0.7075,0.7147,0.7162,0.7187,0.7158,0.7329,0.7332,0.7334,0.7326,0.7329,0.7332,0,0,0,0,0,0.6704,0.675,0.6756,0.6773,0.687,0.6936,0.6949,0.698,0.6972,0.6996,0.7033,0.7044,0.7174,0.7153,0.717,0.7198,0.7327,0.7331,0.7334,0.7324,0.7328,0.7332,0,0,0,0,0,0,0.669,0.6759,0.6767,0.6833,0.6878,0.694,0.6972,0.6984,0.7033,0.7032,0.707,0.7085,0.7148,0.718,0.7155,0.726,0.7251,0.7257,0.7237,0.7242,0.7245,0.7236,0.7163,0,0,0,0,0,0.6694,0.6741,0.6799,0.6852,0.6874,0.6919,0.6949,0.6969,0.7018,0.7037,0.7079,0.7127,0.7178,0.7212,0.7263,0.733,0.7345,0.7357,0.736,0.7362,0.7368,0.7405,0.7412,0.7346,0.7346,0.7346,0,0,0.6705,0.6748,0.6775,0.685,0.6888,0.6936,0.6935,0.6986,0.7022,0.7046,0.711,0.7142,0.7198,0.7264,0.7296,0.7292,0.7389,0.7366,0.7368,0.7372,0.7409,0.7415,0.7421,0.7348,0.7348,0.7348,0,0,0.6748,0.6785,0.6833,0.687,0.6925,0.6954,0.6966,0.7025,0.7047,0.7111,0.7129,0.7174,0.7262,0.7301,0.7332,0.7388,0.74,0.7403,0.7419,0.7455,0.746,0.7465,0.7485,0.7491,0.7408,0.7408,0.7408,0,0.6753,0.6826,0.6857,0.6906,0.6939,0.696,0.7009,0.7044,0.7114,0.7136,0.7131,0.7241,0.7281,0.7356,0.7369,0.7394,0.7408,0.7396,0.7457,0.7462,0.7467,0.7486,0.7493,0.7408,0.7408,0.7408,0.7408,0,0.683,0.688,0.6912,0.6977,0.7013,0.7063,0.7102,0.7135,0.7151,0.7181,0.7246,0.7293,0.7354,0.7373,0.7391,0.7451,0.7447,0.7449,0.744,0.7472,0.7491,0.7499,0.7409,0.7409,0.7408,0.7408,0,0,0.6869,0.6948,0.696,0.6989,0.7051,0.7091,0.7141,0.7198,0.7226,0.7273,0.7316,0.7389,0.7391,0.7426,0.7448,0.748,0.752,0.7478,0.748,0.7484,0.7589,0.7587,0.7595,0.7528,0.753,0.7531,0.7584,0,0.6919,0.7008,0.7037,0.7111,0.7158,0.7178,0.7221,0.7264,0.7293,0.7337,0.737,0.7421,0.7419,0.744,0.7472,0.7508,0.7542,0.7505,0.757,0.7571,0.7555,0.7605,0.7604,0.7652,0.7592,0.7593,0.7594,0,0.699,0.7036,0.7115,0.717,0.7191,0.7229,0.7284,0.7325,0.7375,0.7393,0.7432,0.7451,0.7504,0.7491,0.7566,0.754,0.7568,0.759,0.7593,0.76,0.7585,0.7614,0.7668,0.7675,0.7606,0.7605,0.7604,0,0.701,0.7092,0.715,0.7174,0.724,0.7267,0.7296,0.7343,0.7376,0.7423,0.7444,0.7498,0.7528,0.7569,0.7602,0.759,0.7674,0.7664,0.7691,0.7691,0.7709,0.7707,0.7768,0.7727,0.7726,0.7726,0.7726,0,0.7064,0.7111,0.7159,0.7195,0.7248,0.728,0.7333,0.7363,0.7405,0.7447,0.7468,0.7507,0.7549,0.7593,0.762,0.7677,0.7691,0.7708,0.7714,0.7706,0.7704,0.7725,0.7723,0.7728,0.7728,0.7727,0.7727,0,0.7095,0.7129,0.7193,0.7249,0.7265,0.7302,0.735,0.7386,0.7414,0.7467,0.7482,0.7528,0.7581,0.7618,0.7687,0.7705,0.7767,0.7773,0.775,0.7753,0.7778,0.7775,0.7855,0.7867,0.7817,0.7818,0.7818,0,0.7127,0.7164,0.7223,0.7252,0.728,0.7327,0.7359,0.7392,0.7425,0.7483,0.7512,0.7566,0.7611,0.7696,0.7736,0.7789,0.7797,0.7821,0.7805,0.7795,0.7797,0.7794,0.7798,0.7824,0.7824,0.7824,0.7825,0,0.718,0.7195,0.724,0.729,0.7328,0.737,0.7412,0.7435,0.7475,0.7511,0.7565,0.76,0.767,0.7724,0.778,0.7811,0.7825,0.7829,0.7838,0.783,0.7815,0.7823,0.7757,0.7827,0.7827,0.7827,0.7827,0.7827,0.7213,0.7246,0.7292,0.7342,0.7376,0.7415,0.745,0.7483,0.7528,0.7586,0.7603,0.7659,0.7707,0.7784,0.7815,0.786,0.7858,0.7871,0.7875,0.7878,0.7877,0.7807,0.787,0.787,0.787,0.787,0.787,0,0.7266,0.7297,0.7342,0.7399,0.7438,0.7445,0.7492,0.7524,0.7573,0.7616,0.7659,0.7721,0.7773,0.7816,0.787,0.7898,0.7905,0.7911,0.7909,0.7916,0.7876,0.7862,0.7903,0.7903,0.7903,0.7903,0.7903,0.7903,0.7299,0.7355,0.7375,0.7448,0.7479,0.7532,0.7558,0.7594,0.7628,0.7695,0.7738,0.7765,0.7808,0.7865,0.7913,0.7925,0.7944,0.7948,0.7961,0.7923,0.7919,0.7915,0.7903,0.7951,0.7952,0.7997,0.7997,0.7997]},{"header":{"parameterUnit":"m.s-1","parameterCategory":1,"la1":30.2991,"la2":30.254,"lo1":-89.0895,"lo2":-89.0444,"dy":0.0017,"dx":0.0017,"nx":28,"ny":28,"refTime":"2026-02-11T03:00:00:Z","depth":0,"parameterNumber":3,"parameterNumberName":"V-component_of_WINDS"},"data":[0,0,0,0,0,0,0,0,0,0,0,0,0,0,0,0,0,0,0,0,0,0,0,0,0,0,0,0,0,0,0,0,0,0,0,0,0,0,0,0,0,0,0,0,0,0,0,0,0,0,0,0,0,0,0,0,0,0,2.1417,2.1416,0,2.14,2.14,2.14,2.1389,2.1389,2.1389,2.1388,2.137,2.1369,2.1369,0,0,0,0,0,0,0,0,0,0,0,0,0,2.1437,2.1436,2.1417,2.1416,2.1416,2.14,2.14,2.1399,2.1389,2.1389,2.1389,2.1388,2.137,2.1369,2.1369,0,0,0,0,0,0,0,0,0,0,0,0,0,2.1425,2.1436,2.1417,2.1409,2.1408,2.14,2.14,2.1399,2.1389,2.1389,2.1389,2.1388,2.137,2.1369,2.1369,2.1366,0,0,2.1367,2.1366,0,0,0,0,0,0,0,0,2.1425,2.1424,2.141,2.1409,2.1408,2.1396,2.14,2.1388,2.1389,2.1396,2.1388,2.1388,2.1378,2.1377,2.1374,2.1366,2.1365,2.1367,2.1366,2.1366,2.1366,0,0,0,0,0,0,0,2.1426,2.1425,2.141,2.141,2.1409,2.1405,2.1404,2.1398,2.1388,2.1395,2.1395,2.1393,2.1378,2.1375,2.1374,2.1364,2.1367,2.1366,2.1366,2.1365,2.1351,2.1351,0,0,0,0,0,0,2.1429,2.1425,2.1411,2.1409,2.1417,2.1405,2.1403,2.14,2.1388,2.1386,2.1393,2.1392,2.1376,2.1374,2.1373,2.1368,2.1366,2.1365,2.1365,2.1351,2.1351,2.1351,0,0,0,0,0,0,2.1429,2.1427,2.1411,2.1417,2.1415,2.1405,2.1402,2.14,2.1397,2.1386,2.1384,2.1392,2.1376,2.1374,2.1368,2.1367,2.1365,2.1364,2.1351,2.1351,2.1351,2.136,0,0,0,0,0,0,2.143,2.1428,2.1427,2.1417,2.1415,2.1407,2.1402,2.14,2.1396,2.1395,2.1384,2.1382,2.1376,2.1369,2.1367,2.1367,2.1364,2.1351,2.1351,2.1351,2.136,2.136,2.1361,0,0,0,0,0,2.143,2.1431,2.1428,2.1426,2.1414,2.1407,2.1406,2.1398,2.1396,2.1395,2.1388,2.1383,2.1368,2.1368,2.1366,2.1366,2.1351,2.1351,2.1351,2.1359,2.136,2.1361,0,0,0,0,0,0,2.1441,2.1429,2.1426,2.1423,2.1416,2.1406,2.1404,2.14,2.1393,2.1393,2.1383,2.1381,2.1375,2.137,2.137,2.1362,2.1359,2.1358,2.1366,2.1366,2.1367,2.1368,2.1363,0,0,0,0,0,2.1443,2.1439,2.1429,2.1427,2.1424,2.1415,2.1411,2.1406,2.1399,2.1396,2.1388,2.1381,2.1374,2.137,2.1363,2.1359,2.1355,2.1357,2.1357,2.1358,2.1358,2.1353,2.1353,2.1351,2.1351,2.1351,0,0,2.1447,2.144,2.1438,2.1429,2.1423,2.1418,2.1412,2.1408,2.1404,2.1395,2.1389,2.1383,2.1373,2.1368,2.1365,2.1363,2.1357,2.1358,2.1359,2.1358,2.1353,2.1353,2.1354,2.1351,2.1351,2.1351,0,0,2.1451,2.1446,2.1444,2.1438,2.1429,2.1423,2.1422,2.1412,2.1408,2.1402,2.1394,2.1389,2.1378,2.1371,2.1366,2.1367,2.1361,2.1365,2.1368,2.1364,2.1364,2.1364,2.1363,2.1363,2.1365,2.1365,2.1365,0,2.1457,2.145,2.1443,2.1438,2.1434,2.1426,2.1422,2.1417,2.1406,2.1403,2.1401,2.1386,2.138,2.1371,2.1371,2.1368,2.1366,2.1366,2.1365,2.1365,2.1364,2.1363,2.1363,2.1365,2.1365,2.1365,2.1365,0,2.1457,2.1453,2.1451,2.1442,2.1437,2.1433,2.1424,2.142,2.1415,2.1408,2.1401,2.1392,2.1383,2.1381,2.1375,2.1371,2.137,2.1367,2.1363,2.1365,2.1364,2.1364,2.1366,2.1366,2.1365,2.1365,0,0,2.1468,2.1454,2.1454,2.1448,2.1438,2.1433,2.1428,2.142,2.1416,2.1409,2.1403,2.1394,2.139,2.1384,2.1378,2.1374,2.1374,2.1371,2.1371,2.1371,2.1367,2.1369,2.1369,2.137,2.137,2.137,2.1367,0,2.1471,2.1463,2.1455,2.1449,2.1443,2.1435,2.143,2.1422,2.1416,2.1409,2.1402,2.1395,2.1391,2.1387,2.1383,2.1375,2.1372,2.1375,2.1364,2.1363,2.1366,2.1368,2.1371,2.1369,2.1367,2.1367,2.1367,0,2.1473,2.1466,2.146,2.1448,2.1446,2.1442,2.1432,2.1427,2.1417,2.1413,2.1406,2.1399,2.1392,2.1389,2.1378,2.138,2.1375,2.1369,2.1369,2.1368,2.1365,2.1366,2.1369,2.1368,2.1366,2.1366,2.1366,0,2.1481,2.147,2.1464,2.146,2.1447,2.1444,2.1438,2.1429,2.1424,2.1415,2.1411,2.1402,2.1397,2.1389,2.1379,2.1378,2.1368,2.1365,2.1363,2.1363,2.1362,2.1362,2.1363,2.1359,2.1359,2.1359,2.1359,0,2.1484,2.148,2.1467,2.1464,2.1458,2.1449,2.1444,2.1437,2.1428,2.1422,2.1414,2.1408,2.1396,2.1388,2.138,2.1372,2.137,2.1365,2.1362,2.1365,2.1366,2.1361,2.1361,2.1359,2.1359,2.1359,2.1359,0,2.1492,2.1483,2.1476,2.1464,2.1461,2.1458,2.1447,2.1442,2.1435,2.1427,2.1425,2.1413,2.1403,2.1392,2.1379,2.1374,2.1365,2.1363,2.1369,2.1368,2.1366,2.1366,2.1364,2.1362,2.136,2.136,2.136,0,2.1494,2.1491,2.1478,2.1474,2.1469,2.1462,2.1457,2.1447,2.1441,2.1429,2.1426,2.1415,2.1407,2.1392,2.1381,2.137,2.1367,2.1367,2.1365,2.1367,2.1366,2.1366,2.1365,2.1367,2.1367,2.1367,2.1367,0,2.1499,2.1495,2.1488,2.1479,2.1473,2.1465,2.1457,2.1454,2.1442,2.1436,2.1426,2.142,2.1406,2.1395,2.1383,2.1376,2.1369,2.1368,2.1367,2.1369,2.1373,2.137,2.137,2.1368,2.1368,2.1368,2.1368,2.1368,2.1504,2.15,2.149,2.1483,2.1475,2.1468,2.1463,2.1454,2.1447,2.1435,2.1429,2.1419,2.1408,2.1391,2.1384,2.1375,2.1373,2.1371,2.1371,2.137,2.137,2.1374,2.1372,2.1372,2.1372,2.1372,2.1372,0,2.1507,2.1501,2.1494,2.1483,2.1476,2.1471,2.1461,2.1456,2.1448,2.1438,2.143,2.1417,2.1407,2.1395,2.1383,2.1378,2.1374,2.1375,2.1375,2.1373,2.1373,2.1375,2.1378,2.1378,2.1378,2.1378,2.1378,2.1378,2.1509,2.1502,2.1496,2.1485,2.1478,2.1469,2.1464,2.1456,2.1448,2.1435,2.1427,2.1419,2.1408,2.1395,2.1384,2.1381,2.1377,2.1378,2.1374,2.1374,2.1374,2.1373,2.1375,2.1377,2.1377,2.1374,2.1374,2.1374]}]]